SCP
0 0 0 0 0 -0 0 0 0 0 0 0 0 0 0 0 0 -0 -0 0 -0 0 -0 -0 0 0 0 -0 0 0 0 -0 0 0 0 0 0 0 0 0 0 0 0 -0
0 0 0 0 0 0 0 0 0 0 0 0 0 0 0 -0 0 -0 0 0 0 -0 -0 0 -0 0 0 -0 -0 0 0 0 -0 0 0 -0 0 0 0 0 0 0 0 -0
0 0 0 0 0 0 0 0 0 0 0 0 0 0 0 -0 0 0 -0 0 0 -0 -0 0 0 -0 -0 -0 -0 0 0 -0 -0 0 0 0 0 0 0 0 0 0 0 0
0 0 0 0 0 0 0 0 0 0 0 0 0 0 0 0 0 -0 -0 0 -0 0 -0 0 0 0 0 0 0 -0 0 0 0 0 0 0 0 0 0 0 0 0 0 0
0 0 0 0 0 0 0 0 0 0 0 0 0 0 0 0 -0 -0 0 -0 -0 0 0 -0 -0 -0 -0 -0 -0 -0 -0 0 0 0 0 -0 0 0 0 0 0 0 0 -0
0 0 0 0 0 0 0 0 0 0 0 0 0 0 0 0 0 0 0 -0 0 -0 -0 0 0 -0 0 0 -0 -0 0 0 -0 -0 0 0 0 0 0 0 0 0 -0 -0
0 0 0 0 0 0 0 0 0 0 0 0 0 0 0 0 0 0 0 0 0 0 -0 -0 -0 -0 -0 -0 -0 -0 -0 -0 0 -0 -0 -0 0 0 0 0 0 0 0 0
0 0 0 0 0 0 0 0 0 0 0 0 0 0 0 0 0 0 0 -0 -0 0 0 0 0 0 0 0 -0 -0 -0 -0 0 0 0 0 0 0 0 0 0 0 0 0
0 0 0 0 0 0 0 0 0 0 0 0 0 0 0 0 0 0 0 0 0 0 0 0 0 0 0 0 -0 -0 -0 -0 -0 -0 0 0 0 0 0 0 0 0 0 0
0 0 0 0 0 0 0 0 0 0 0 0 0 0 0 0 0 0 0 0 0 -0 -0 -0 -0 0 0 0 -0 -0 0 0 -0 -0 0 0 0 0 0 0 0 0 0 0
0 0 0 0 0 0 0 0 0 0 0 0 0 0 0 0 0 0 0 0 0 0 0 -0 0 -0 -0 0 0 0 -0 0 -0 -0 0 0 -0 0 0 0 0 0 0 0
0 0 0 0 0 0 0 0 0 0 0 0 0 0 0 0 0 0 0 0 0 0 0 0 0 0 -0 -0 -0 -0 -0 0 0 0 0 -0 -0 0 0 0 0 0 0 0
0 0 0 0 0 0 0 0 0 0 0 0 0 0 0 0 0 0 0 0 0 0 0 0 0 -0 0 0 -0 -0 -0 -0 -0 0 0 0 0 0 0 0 0 0 0 0
0 0 0 -0 0 0 0 0 0 0 0 0 0 0 0 0 0 0 0 0 0 0 0 0 0 0 0 0 -0 -0 -0 -0 0 -0 -0 -0 -0 0 0 0 0 0 0 0
0 0 0 -0 -0 0 0 0 0 0 0 0 0 -0 0 0 0 0 0 0 0 0 0 0 0 0 0 -0 -0 -0 -0 -0 -0 -0 0 -0 -0 0 0 0 0 0 0 0
0 0 0 -0 -0 0 0 0 0 -0 0 0 0 0 0 0 -0 0 0 0 0 0 0 0 0 0 -0 -0 -0 -0 -0 -0 -0 -0 -0 -0 -0 0 -0 0 0 0 0 0
0 0 0 0 0 0 0 0 0 0 0 0 0 0 0 -0 0 0 0 0 0 0 0 0 0 0 -0 -0 -0 -0 -0 0 0 0 -0 -0 -0 0 -0 0 0 0 0 0
0 0 0 0 0 0 0 0 0 0 0 0 0 0 0 0 0 0 0 0 0 0 0 0 0 0 0 -0 -0 -0 0 -0 -0 -0 0 0 0 -0 0 0 0 0 0 0
0 0 0 0 0 0 0 0 0 0 0 0 0 0 0 0 0 0 0 0 0 0 0 0 0 0 0 0 0 0 0 -0 -0 -0 0 0 0 0 0 0 0 0 0 0
0 0 0 0 0 0 0 0 0 0 0 0 0 0 0 0 0 0 0 0 0 0 0 0 0 0 -0 -0 0 0 0 0 -0 0 0 0 0 0 0 0 0 0 0 0
0 0 0 0 0 0 0 0 0 0 0 0 0 0 0 0 0 0 0 0 0 0 0 0 0 0 0 0 0 0 -0 0 -0 -0 -0 0 0 0 0 0 0 0 0 0
0 0 0 0 0 0 0 0 0 0 0 0 0 0 0 0 0 0 0 0 0 0 0 0 0 0 0 0 0 0 -0 0 -0 0 -0 0 0 0 0 0 0 0 0 0
0 0 0 0 0 0 0 0 0 0 0 0 0 0 0 0 0 0 0 0 0 0 0 0 0 0 0 0 0 0 -0 0 -0 -0 -0 0 0 0 0 0 0 0 0 0
0 0 0 0 0 0 0 -0 -0 0 0 0 0 0 0 0 0 0 0 0 0 0 0 0 0 -0 0 0 0 0 0 -0 -0 0 0 -0 0 0 0 0 0 0 0 0
0 0 0 0 0 -0 -0 0 0 0 0 0 0 0 0 0 0 0 0 0 0 0 0 0 0 0 0 0 0 0 0 0 -0 -0 -0 0 0 0 -0 0 0 0 0 0
0 0 0 0 0 0 0 0 0 0 0 0 0 0 0 0 0 0 0 0 0 0 0 0 0 0 0 0 0 0 0 0 0 0 -0 -0 0 0 0 0 0 0 0 0
0 0 0 0 0 0 0 -0 0 0 0 0 0 0 0 0 0 0 0 0 0 0 0 0 0 -0 0 0 0 0 0 0 -0 0 -0 0 -0 0 0 0 0 0 0 0
Wind_Speed_500mb
61 60 60 69 73 69 55 19 7 6 17 5 1 4 32 45 43 43 26 24 18 12 21 27 16 9 7 9 23 9 7 4 12 26 35 33 32 38 32 19 15 20 21 27
62 63 56 64 65 60 56 32 14 7 15 2 4 20 29 42 37 21 12 12 13 16 6 12 20 21 17 26 32 2 3 3 10 12 14 17 14 15 18 18 28 34 33 22
61 62 54 59 61 49 43 14 6 18 26 19 7 23 21 31 42 29 38 25 18 4 11 22 15 15 8 22 27 25 10 7 15 13 29 10 19 37 32 18 21 28 32 34
62 59 57 54 58 47 29 8 9 22 10 20 25 21 27 31 26 32 38 10 25 30 26 28 23 30 31 31 3 5 6 10 15 30 39 25 28 39 38 28 34 19 31 31
57 58 57 56 53 52 20 15 15 17 30 32 24 19 11 24 34 28 27 26 40 25 27 26 36 28 21 17 19 9 12 8 22 31 34 25 24 41 38 37 45 32 38 35
54 54 59 55 50 47 18 23 19 19 18 17 15 8 29 33 32 19 49 41 34 31 34 39 47 49 48 32 28 31 16 10 10 12 10 16 14 35 34 28 37 38 37 15
53 52 54 58 44 35 30 29 33 13 10 13 21 41 37 35 35 32 41 44 21 26 52 62 57 55 44 37 36 35 28 21 4 9 2 9 7 15 30 31 45 40 41 33
54 53 52 53 43 37 43 25 21 11 8 25 31 35 36 45 43 30 41 39 55 59 42 15 15 8 4 19 36 34 33 17 4 6 7 17 16 8 18 21 6 32 28 28
53 53 51 49 44 47 45 35 18 29 13 12 39 37 34 18 16 15 28 55 56 29 7 7 8 8 5 6 11 9 25 17 9 6 3 7 6 35 59 46 9 31 24 42
56 53 50 46 45 48 35 41 10 24 18 44 30 21 24 15 8 7 22 31 20 28 9 4 4 7 19 10 13 12 4 6 9 10 7 7 14 44 78 6 6 25 29 36
55 52 48 46 46 48 43 49 18 32 24 58 65 46 38 39 14 4 20 24 14 10 12 7 7 6 7 8 5 11 5 8 5 6 3 8 44 50 10 14 36 15 35 40
55 52 48 46 45 49 44 46 9 19 33 50 74 69 48 44 46 28 6 10 11 10 5 6 6 5 7 11 8 13 5 6 4 9 8 19 34 43 61 51 30 51 55 51
50 49 47 48 48 49 52 51 37 17 31 50 20 41 19 20 27 36 9 9 8 6 10 7 5 7 4 5 6 7 7 24 2 10 12 21 21 47 55 51 52 59 55 54
50 53 54 53 52 51 56 54 30 23 15 9 16 22 17 14 34 19 11 15 16 17 16 10 6 7 10 3 3 4 7 17 19 6 8 13 28 55 67 69 63 55 53 55
57 59 55 52 52 52 53 39 21 35 22 9 27 46 21 40 33 19 6 10 12 11 8 7 6 8 5 2 7 5 9 9 8 7 33 22 34 45 49 43 54 56 51 56
49 43 41 46 48 48 19 9 4 21 35 11 7 23 11 25 25 27 27 14 11 13 10 11 12 9 3 2 0 5 23 16 12 13 32 34 38 29 33 42 40 41 46 40
42 42 41 44 39 28 14 5 1 18 28 7 11 10 10 35 26 23 31 27 16 18 11 8 9 18 4 2 4 11 8 11 30 34 27 21 25 35 43 32 29 32 38 35
43 38 38 35 25 8 12 19 16 14 23 10 5 8 13 32 16 10 19 16 17 14 12 9 8 8 5 3 10 27 10 18 26 36 30 32 34 27 34 31 33 36 37 35
38 29 35 14 6 6 8 13 25 35 14 7 8 5 7 19 21 15 11 15 6 10 7 7 2 5 4 9 17 16 14 16 29 31 32 30 25 28 29 32 37 14 17 25
25 17 7 5 5 15 14 6 6 13 16 14 10 28 9 5 9 7 6 6 5 4 9 5 4 5 23 35 10 17 18 18 39 34 23 27 25 22 19 26 24 20 22 21
16 12 9 9 2 8 9 9 13 14 9 16 16 33 17 10 7 5 3 3 7 5 5 4 6 2 18 10 10 18 22 24 52 47 29 23 19 22 18 22 21 22 16 21
29 27 38 22 6 10 7 6 8 11 9 22 11 22 27 9 7 5 2 1 6 7 15 5 2 5 10 21 17 21 28 38 43 46 36 30 14 6 12 20 21 31 32 23
14 7 5 7 8 8 11 11 8 8 10 20 19 6 16 9 7 5 3 2 7 21 5 4 4 8 12 17 23 27 35 33 43 37 43 47 38 23 15 12 15 14 13 7
8 9 9 11 10 11 11 12 14 9 19 11 1 19 12 9 5 5 5 6 5 5 5 3 7 19 19 19 21 27 26 30 39 35 33 34 33 28 24 30 36 36 44 43
11 13 9 13 27 32 34 38 42 46 15 10 5 1 20 5 5 5 2 1 5 8 7 4 2 11 14 11 15 17 17 21 19 29 33 36 42 46 46 38 27 29 29 27
12 18 13 26 24 24 33 29 18 25 28 13 6 5 3 5 8 7 8 5 10 8 7 15 10 12 11 11 7 10 15 9 10 25 26 35 40 37 42 51 41 37 25 20
13 16 28 44 49 42 49 50 40 19 21 14 4 6 10 5 6 10 10 11 8 18 22 18 19 18 13 11 4 10 1 9 8 18 24 32 36 36 37 49 45 46 51 39
Wind_Direction_500mb
356 349 346 353 350 349 357 9 314 181 346 282 294 264 310 322 326 329 314 344 341 6 336 301 291 303 258 126 266 297 71 242 279 264 281 274 290 257 232 231 253 233 266 252
356 355 352 355 354 349 349 342 286 310 354 325 305 309 314 315 332 353 12 288 34 50 10 306 330 330 19 16 308 43 50 336 305 299 240 245 262 297 257 238 233 219 234 263
354 356 356 358 358 349 343 327 315 325 321 6 309 311 319 320 330 321 348 343 338 18 281 304 305 248 239 228 250 275 106 255 230 268 286 308 297 318 322 340 240 235 228 249
354 353 354 352 1 355 347 313 343 8 327 328 315 308 301 319 319 329 336 333 336 325 316 308 302 323 319 322 162 169 145 252 244 272 276 258 269 285 295 310 288 248 235 229
350 353 352 352 353 7 4 327 349 326 298 310 325 310 306 329 323 333 311 331 312 318 310 300 305 304 303 288 299 154 173 263 294 284 267 231 243 271 285 285 282 283 248 251
348 349 351 349 350 359 2 317 314 315 275 309 329 298 322 317 324 318 323 308 312 312 299 291 295 286 273 256 268 276 233 245 308 293 124 108 236 243 254 264 266 264 260 213
344 344 347 349 350 348 340 330 312 288 284 322 313 314 316 324 317 307 305 309 324 277 302 307 291 277 258 237 238 236 249 255 238 271 193 210 267 295 310 279 260 276 274 150
338 341 342 347 347 346 335 336 292 284 275 301 302 326 321 324 322 322 317 345 325 322 315 307 319 329 244 224 217 219 220 222 262 282 299 311 316 30 355 339 306 347 127 117
330 334 337 341 340 340 334 339 253 277 284 249 316 315 302 315 323 322 315 325 329 329 304 307 315 338 321 334 350 241 211 197 155 288 196 284 279 330 329 327 65 346 17 65
320 325 331 333 335 337 329 323 256 277 262 279 278 303 297 293 291 279 300 337 323 355 342 316 293 330 358 347 346 338 168 160 199 241 286 297 342 324 312 175 157 327 43 76
319 319 323 329 331 330 331 318 297 254 268 282 283 286 286 304 270 278 313 327 6 332 9 326 343 332 333 316 335 347 15 306 345 295 116 292 7 333 6 332 314 11 28 39
314 315 317 321 328 329 328 307 290 263 268 268 288 291 284 270 256 264 276 281 291 351 333 338 315 315 329 311 344 350 39 39 324 2 360 336 3 319 353 333 272 34 24 20
310 311 317 318 319 323 320 307 305 259 276 297 293 305 325 263 235 258 204 245 272 320 346 302 293 282 285 322 324 310 296 12 178 166 345 320 324 341 340 351 15 21 16 11
310 308 311 316 316 317 315 307 299 232 264 269 279 321 305 293 239 241 249 262 283 296 296 246 249 262 239 292 208 301 315 312 341 119 355 334 344 353 344 346 7 6 1 5
308 308 304 308 311 314 314 306 285 207 224 289 299 319 335 233 244 253 271 277 275 294 277 233 237 220 330 303 33 321 2 349 11 328 338 335 319 328 323 335 349 356 358 357
318 322 314 306 310 312 314 312 1 194 224 288 304 293 248 202 228 237 239 257 264 258 276 256 278 277 328 328 151 274 10 10 351 310 323 315 305 332 344 345 339 339 344 342
324 321 311 306 311 301 206 236 346 182 211 262 282 284 261 211 210 226 235 228 238 226 266 245 262 299 218 274 22 2 338 351 338 336 336 316 308 318 327 324 331 340 334 328
321 316 309 311 310 300 231 231 250 194 206 248 268 277 285 190 203 232 214 209 227 233 253 260 238 279 213 263 14 318 78 348 336 330 319 290 297 303 318 313 322 320 328 333
321 313 312 302 208 242 240 245 205 194 222 270 223 232 262 190 219 202 210 219 228 237 222 241 94 303 269 281 295 91 25 2 336 337 329 313 306 313 310 322 326 319 333 347
334 338 346 147 42 347 310 234 205 202 212 224 252 218 255 199 27 250 223 220 255 238 231 200 141 254 298 289 309 22 26 7 355 332 320 310 308 300 304 307 321 318 311 330
11 339 293 272 275 311 246 222 196 186 224 219 239 221 227 245 183 206 59 321 281 262 272 168 179 121 274 177 31 13 3 1 11 360 348 337 305 278 287 299 295 319 300 302
312 293 286 299 241 232 253 231 206 202 238 183 217 220 207 126 108 91 222 227 318 273 334 250 131 233 268 48 88 50 22 11 7 21 14 9 26 309 290 286 291 303 290 293
319 284 253 231 232 239 217 216 210 204 206 206 200 140 147 121 132 129 109 155 244 334 328 284 88 337 91 49 97 53 34 29 28 29 29 28 45 60 61 14 359 36 25 263
268 232 250 212 211 230 206 246 270 332 298 90 315 158 139 142 166 142 205 224 38 330 278 253 148 190 77 59 86 54 43 44 39 31 39 32 33 41 46 35 54 52 59 39
266 239 241 229 233 266 266 252 259 274 235 179 254 185 152 126 145 195 123 189 242 211 234 235 163 112 110 82 87 55 33 35 34 48 44 49 42 48 46 32 26 41 55 43
244 237 270 286 286 281 288 292 298 340 326 289 142 68 31 182 162 162 194 168 225 240 215 227 206 195 156 118 107 85 41 45 19 55 57 52 44 39 43 35 43 39 34 31
240 245 254 266 275 278 281 287 292 270 220 251 130 146 223 191 173 170 160 204 219 214 248 177 146 212 202 138 172 146 39 50 47 64 74 66 64 58 43 33 39 41 38 44
Wind_Speed_850mb
61 60 60 69 73 69 55 19 7 6 17 5 1 4 32 45 43 43 26 24 18 12 21 27 16 9 7 9 23 9 7 4 12 26 35 33 32 38 32 19 15 20 21 27
62 63 56 64 65 60 56 32 14 7 15 2 4 20 29 42 37 21 12 12 13 16 6 12 20 21 17 26 32 2 3 3 10 12 14 17 14 15 18 18 28 34 33 22
61 62 54 59 61 49 43 14 6 18 26 19 7 23 21 31 42 29 38 25 18 4 11 22 15 15 8 22 27 25 10 7 15 13 29 10 19 37 32 18 21 28 32 34
62 59 57 54 58 47 29 8 9 22 10 20 25 21 27 31 26 32 38 10 25 30 26 28 23 30 31 31 3 5 6 10 15 30 39 25 28 39 38 28 34 19 31 31
57 58 57 56 53 52 20 15 15 17 30 32 24 19 11 24 34 28 27 26 40 25 27 26 36 28 21 17 19 9 12 8 22 31 34 25 24 41 38 37 45 32 38 35
54 54 59 55 50 47 18 23 19 19 18 17 15 8 29 33 32 19 49 41 34 31 34 39 47 49 48 32 28 31 16 10 10 12 10 16 14 35 34 28 37 38 37 15
53 52 54 58 44 35 30 29 33 13 10 13 21 41 37 35 35 32 41 44 21 26 52 62 57 55 44 37 36 35 28 21 4 9 2 9 7 15 30 31 45 40 41 33
54 53 52 53 43 37 43 25 21 11 8 25 31 35 36 45 43 30 41 39 55 59 42 15 15 8 4 19 36 34 33 17 4 6 7 17 16 8 18 21 6 32 28 28
53 53 51 49 44 47 45 35 18 29 13 12 39 37 34 18 16 15 28 55 56 29 7 7 8 8 5 6 11 9 25 17 9 6 3 7 6 35 59 46 9 31 24 42
56 53 50 46 45 48 35 41 10 24 18 44 30 21 24 15 8 7 22 31 20 28 9 4 4 7 19 10 13 12 4 6 9 10 7 7 14 44 78 6 6 25 29 36
55 52 48 46 46 48 43 49 18 32 24 58 65 46 38 39 14 4 20 24 14 10 12 7 7 6 7 8 5 11 5 8 5 6 3 8 44 50 10 14 36 15 35 40
55 52 48 46 45 49 44 46 9 19 33 50 74 69 48 44 46 28 6 10 11 10 5 6 6 5 7 11 8 13 5 6 4 9 8 19 34 43 61 51 30 51 55 51
50 49 47 48 48 49 52 51 37 17 31 50 20 41 19 20 27 36 9 9 8 6 10 7 5 7 4 5 6 7 7 24 2 10 12 21 21 47 55 51 52 59 55 54
50 53 54 53 52 51 56 54 30 23 15 9 16 22 17 14 34 19 11 15 16 17 16 10 6 7 10 3 3 4 7 17 19 6 8 13 28 55 67 69 63 55 53 55
57 59 55 52 52 52 53 39 21 35 22 9 27 46 21 40 33 19 6 10 12 11 8 7 6 8 5 2 7 5 9 9 8 7 33 22 34 45 49 43 54 56 51 56
49 43 41 46 48 48 19 9 4 21 35 11 7 23 11 25 25 27 27 14 11 13 10 11 12 9 3 2 0 5 23 16 12 13 32 34 38 29 33 42 40 41 46 40
42 42 41 44 39 28 14 5 1 18 28 7 11 10 10 35 26 23 31 27 16 18 11 8 9 18 4 2 4 11 8 11 30 34 27 21 25 35 43 32 29 32 38 35
43 38 38 35 25 8 12 19 16 14 23 10 5 8 13 32 16 10 19 16 17 14 12 9 8 8 5 3 10 27 10 18 26 36 30 32 34 27 34 31 33 36 37 35
38 29 35 14 6 6 8 13 25 35 14 7 8 5 7 19 21 15 11 15 6 10 7 7 2 5 4 9 17 16 14 16 29 31 32 30 25 28 29 32 37 14 17 25
25 17 7 5 5 15 14 6 6 13 16 14 10 28 9 5 9 7 6 6 5 4 9 5 4 5 23 35 10 17 18 18 39 34 23 27 25 22 19 26 24 20 22 21
16 12 9 9 2 8 9 9 13 14 9 16 16 33 17 10 7 5 3 3 7 5 5 4 6 2 18 10 10 18 22 24 52 47 29 23 19 22 18 22 21 22 16 21
29 27 38 22 6 10 7 6 8 11 9 22 11 22 27 9 7 5 2 1 6 7 15 5 2 5 10 21 17 21 28 38 43 46 36 30 14 6 12 20 21 31 32 23
14 7 5 7 8 8 11 11 8 8 10 20 19 6 16 9 7 5 3 2 7 21 5 4 4 8 12 17 23 27 35 33 43 37 43 47 38 23 15 12 15 14 13 7
8 9 9 11 10 11 11 12 14 9 19 11 1 19 12 9 5 5 5 6 5 5 5 3 7 19 19 19 21 27 26 30 39 35 33 34 33 28 24 30 36 36 44 43
11 13 9 13 27 32 34 38 42 46 15 10 5 1 20 5 5 5 2 1 5 8 7 4 2 11 14 11 15 17 17 21 19 29 33 36 42 46 46 38 27 29 29 27
12 18 13 26 24 24 33 29 18 25 28 13 6 5 3 5 8 7 8 5 10 8 7 15 10 12 11 11 7 10 15 9 10 25 26 35 40 37 42 51 41 37 25 20
13 16 28 44 49 42 49 50 40 19 21 14 4 6 10 5 6 10 10 11 8 18 22 18 19 18 13 11 4 10 1 9 8 18 24 32 36 36 37 49 45 46 51 39
Wind_Direction_850mb
356 349 346 353 350 349 357 9 314 181 346 282 294 264 310 322 326 329 314 344 341 6 336 301 291 303 258 126 266 297 71 242 279 264 281 274 290 257 232 231 253 233 266 252
356 355 352 355 354 349 349 342 286 310 354 325 305 309 314 315 332 353 12 288 34 50 10 306 330 330 19 16 308 43 50 336 305 299 240 245 262 297 257 238 233 219 234 263
354 356 356 358 358 349 343 327 315 325 321 6 309 311 319 320 330 321 348 343 338 18 281 304 305 248 239 228 250 275 106 255 230 268 286 308 297 318 322 340 240 235 228 249
354 353 354 352 1 355 347 313 343 8 327 328 315 308 301 319 319 329 336 333 336 325 316 308 302 323 319 322 162 169 145 252 244 272 276 258 269 285 295 310 288 248 235 229
350 353 352 352 353 7 4 327 349 326 298 310 325 310 306 329 323 333 311 331 312 318 310 300 305 304 303 288 299 154 173 263 294 284 267 231 243 271 285 285 282 283 248 251
348 349 351 349 350 359 2 317 314 315 275 309 329 298 322 317 324 318 323 308 312 312 299 291 295 286 273 256 268 276 233 245 308 293 124 108 236 243 254 264 266 264 260 213
344 344 347 349 350 348 340 330 312 288 284 322 313 314 316 324 317 307 305 309 324 277 302 307 291 277 258 237 238 236 249 255 238 271 193 210 267 295 310 279 260 276 274 150
338 341 342 347 347 346 335 336 292 284 275 301 302 326 321 324 322 322 317 345 325 322 315 307 319 329 244 224 217 219 220 222 262 282 299 311 316 30 355 339 306 347 127 117
330 334 337 341 340 340 334 339 253 277 284 249 316 315 302 315 323 322 315 325 329 329 304 307 315 338 321 334 350 241 211 197 155 288 196 284 279 330 329 327 65 346 17 65
320 325 331 333 335 337 329 323 256 277 262 279 278 303 297 293 291 279 300 337 323 355 342 316 293 330 358 347 346 338 168 160 199 241 286 297 342 324 312 175 157 327 43 76
319 319 323 329 331 330 331 318 297 254 268 282 283 286 286 304 270 278 313 327 6 332 9 326 343 332 333 316 335 347 15 306 345 295 116 292 7 333 6 332 314 11 28 39
314 315 317 321 328 329 328 307 290 263 268 268 288 291 284 270 256 264 276 281 291 351 333 338 315 315 329 311 344 350 39 39 324 2 360 336 3 319 353 333 272 34 24 20
310 311 317 318 319 323 320 307 305 259 276 297 293 305 325 263 235 258 204 245 272 320 346 302 293 282 285 322 324 310 296 12 178 166 345 320 324 341 340 351 15 21 16 11
310 308 311 316 316 317 315 307 299 232 264 269 279 321 305 293 239 241 249 262 283 296 296 246 249 262 239 292 208 301 315 312 341 119 355 334 344 353 344 346 7 6 1 5
308 308 304 308 311 314 314 306 285 207 224 289 299 319 335 233 244 253 271 277 275 294 277 233 237 220 330 303 33 321 2 349 11 328 338 335 319 328 323 335 349 356 358 357
318 322 314 306 310 312 314 312 1 194 224 288 304 293 248 202 228 237 239 257 264 258 276 256 278 277 328 328 151 274 10 10 351 310 323 315 305 332 344 345 339 339 344 342
324 321 311 306 311 301 206 236 346 182 211 262 282 284 261 211 210 226 235 228 238 226 266 245 262 299 218 274 22 2 338 351 338 336 336 316 308 318 327 324 331 340 334 328
321 316 309 311 310 300 231 231 250 194 206 248 268 277 285 190 203 232 214 209 227 233 253 260 238 279 213 263 14 318 78 348 336 330 319 290 297 303 318 313 322 320 328 333
321 313 312 302 208 242 240 245 205 194 222 270 223 232 262 190 219 202 210 219 228 237 222 241 94 303 269 281 295 91 25 2 336 337 329 313 306 313 310 322 326 319 333 347
334 338 346 147 42 347 310 234 205 202 212 224 252 218 255 199 27 250 223 220 255 238 231 200 141 254 298 289 309 22 26 7 355 332 320 310 308 300 304 307 321 318 311 330
11 339 293 272 275 311 246 222 196 186 224 219 239 221 227 245 183 206 59 321 281 262 272 168 179 121 274 177 31 13 3 1 11 360 348 337 305 278 287 299 295 319 300 302
312 293 286 299 241 232 253 231 206 202 238 183 217 220 207 126 108 91 222 227 318 273 334 250 131 233 268 48 88 50 22 11 7 21 14 9 26 309 290 286 291 303 290 293
319 284 253 231 232 239 217 216 210 204 206 206 200 140 147 121 132 129 109 155 244 334 328 284 88 337 91 49 97 53 34 29 28 29 29 28 45 60 61 14 359 36 25 263
268 232 250 212 211 230 206 246 270 332 298 90 315 158 139 142 166 142 205 224 38 330 278 253 148 190 77 59 86 54 43 44 39 31 39 32 33 41 46 35 54 52 59 39
266 239 241 229 233 266 266 252 259 274 235 179 254 185 152 126 145 195 123 189 242 211 234 235 163 112 110 82 87 55 33 35 34 48 44 49 42 48 46 32 26 41 55 43
244 237 270 286 286 281 288 292 298 340 326 289 142 68 31 182 162 162 194 168 225 240 215 227 206 195 156 118 107 85 41 45 19 55 57 52 44 39 43 35 43 39 34 31
240 245 254 266 275 278 281 287 292 270 220 251 130 146 223 191 173 170 160 204 219 214 248 177 146 212 202 138 172 146 39 50 47 64 74 66 64 58 43 33 39 41 38 44